AFR842 LFPG-TFFF

Flight info

Callsign AFR842
Flight time N/A
Altitude 33000
Route LGL UT176 ROLEN UZ15 DIDAK DCT AKEMO DCT RIVAK/M084F350 UN460 SIVIR DCT PASAS DCT 44N015W/M084F340 41N020W 38N025W/M084F360 35N030W 32N035W 29N040W 23N050W/M084F380 DCT DRDGE/N0489F380 DCT UMAMU UMAMU2D
Aircraft B77W/H-SDE1E2E3FGHIJ2J3J4J5M1RWXY/LB1D1

Departure

Time N/A
Airport Charles de Gaulle International Airport (LFPG)

Arrival

Time 2026-04-19 21:42
Airport Martinique Aimé Césaire International Airport (TFFF)
Time Latitude Longitude Altitude Speed Heading
2026-04-19 21:36 14.59892 -61.22108 3476 ft 200 kts 157°
2026-04-19 21:36 14.58589 -61.21652 3412 ft 195 kts 156°
2026-04-19 21:36 14.57476 -61.20950 3303 ft 183 kts 131°
2026-04-19 21:37 14.56739 -61.19924 3228 ft 179 kts 117°
2026-04-19 21:37 14.56234 -61.18760 3069 ft 179 kts 95°
2026-04-19 21:37 14.56293 -61.17479 2918 ft 181 kts 83°
2026-04-19 21:37 14.56437 -61.16187 2679 ft 178 kts 81°
2026-04-19 21:38 14.56626 -61.14956 2455 ft 168 kts 80°
2026-04-19 21:38 14.56817 -61.13811 2231 ft 154 kts 80°
2026-04-19 21:38 14.56991 -61.12783 2085 ft 142 kts 80°
2026-04-19 21:38 14.57163 -61.11764 1915 ft 142 kts 79°
2026-04-19 21:39 14.57334 -61.10769 1704 ft 137 kts 78°
2026-04-19 21:39 14.57499 -61.09811 1423 ft 140 kts 80°
2026-04-19 21:39 14.57658 -61.08853 1239 ft 133 kts 79°
2026-04-19 21:39 14.57816 -61.07884 1178 ft 139 kts 79°
2026-04-19 21:40 14.58179 -61.05833 895 ft 143 kts 79°
2026-04-19 21:40 14.58339 -61.04830 709 ft 141 kts 77°
2026-04-19 21:40 14.58517 -61.03825 467 ft 141 kts 80°
2026-04-19 21:41 14.58678 -61.02852 260 ft 136 kts 80°
2026-04-19 21:41 14.58836 -61.01908 66 ft 132 kts 79°
2026-04-19 21:41 14.58983 -61.01041 28 ft 109 kts 81°
2026-04-19 21:41 14.59092 -61.00407 23 ft 61 kts 80°
2026-04-19 21:42 14.59150 -61.00074 26 ft 25 kts 79°
2026-04-19 21:42 14.59237 -61.00029 28 ft 15 kts 348°
2026-04-19 21:42 14.59286 -61.00040 27 ft 0 kts 350°
2026-04-19 21:42 14.59312 -61.00044 27 ft 9 kts 352°
2026-04-19 21:43 14.59367 -61.00075 27 ft 10 kts 304°
2026-04-19 21:43 14.59403 -61.00134 24 ft 7 kts 327°
2026-04-19 21:43 14.59440 -61.00124 25 ft 6 kts 24°
2026-04-19 21:43 14.59469 -61.00107 25 ft 3 kts 31°
2026-04-19 21:44 14.59474 -61.00104 25 ft 0 kts 31°
2026-04-19 21:48 14.59473 -61.00104 25 ft 0 kts 31°
2026-04-19 21:49 14.59473 -61.00105 25 ft 0 kts 31°
2026-04-19 21:53 14.59472 -61.00105 23 ft 0 kts 31°
2026-04-19 21:56 14.59472 -61.00106 23 ft 0 kts 31°
2026-04-19 21:57 14.59471 -61.00106 23 ft 0 kts 31°